Voltar ao catálogo

COSMOS 1867 COOLANT

AtivoLEO
NORAD 39637·DEBRIS·🇷🇺 Russia

Lançado Jul 10, 1987 de Baikonur Cosmodrome

Loading…

Próximas Passagens (próximas 24 horas)

TLE

AtualizadoSource: Space-Track

Época: Sep 13, 2026, 00:48 UTC

1 39637U 87060E   26256.03360578  .00000127  00000-0  81078-4 0  9990
2 39637  65.0084 118.7652 0019594 279.0953  80.7916 14.34184519650299

Acompanhe COSMOS 1867 COOLANT em tempo real com AllMySat

Download on the App Store